Wind_Speed
49 50 50 52 51 46 40 40 36 32 31 31 27 25 23 25 27 17 18 17 16 16 18 15 11 10 10 15 12 13 10 9 9 9 9 7 9 12 17 24 26 25 22
45 46 50 53 49 41 37 33 32 28 31 27 23 22 22 19 16 16 17 14 13 15 15 11 9 7 9 9 8 6 7 8 10 5 3 8 14 16 15 17 19 18 18
47 47 50 50 42 38 34 31 27 27 19 15 16 16 16 14 18 17 14 13 12 14 11 9 9 10 9 6 7 7 7 8 10 9 11 17 21 22 20 20 22 20 20
47 45 47 46 39 38 32 28 27 18 14 14 11 15 17 13 14 14 13 11 13 11 11 7 6 5 5 0 2 6 6 5 6 1 13 20 28 24 24 23 21 22 23
45 43 45 42 39 38 29 26 22 18 17 14 14 18 15 14 16 14 13 12 12 12 10 6 2 3 3 6 4 5 8 9 7 15 23 22 22 25 23 22 22 21 21
46 41 43 39 38 36 30 24 18 15 12 11 10 22 17 16 15 13 12 11 11 14 11 5 3 4 6 10 11 11 11 19 23 19 27 29 24 23 24 25 26 24 23
43 39 39 35 36 36 28 23 16 11 6 7 6 14 13 13 15 12 12 13 13 14 11 7 6 6 9 17 16 17 18 24 26 28 24 23 22 23 24 24 26 28 28
40 37 35 33 34 33 25 22 16 15 10 8 10 18 20 18 15 14 13 11 14 14 12 10 10 11 13 20 16 15 21 27 25 23 23 24 27 27 27 28 27 26 25
39 35 33 31 33 32 25 21 17 18 17 12 14 16 16 16 14 13 13 12 13 14 13 12 14 13 13 19 15 14 17 23 25 24 26 28 28 28 26 24 22 20 18
36 35 32 31 32 30 24 20 17 17 18 19 15 16 18 13 13 14 14 15 14 15 15 15 15 14 14 23 22 20 21 24 27 28 27 27 25 23 22 20 19 19 19
37 36 33 31 32 27 23 18 17 18 18 20 18 18 20 14 17 16 15 16 15 15 16 17 17 17 23 25 25 25 26 25 24 24 22 21 20 18 17 17 16 15 14
37 35 31 31 31 27 23 21 19 19 22 21 21 18 22 16 17 16 15 15 16 16 16 19 20 21 28 23 24 27 27 27 26 25 22 20 19 18 16 15 14 12 10
39 37 36 35 31 27 24 24 24 23 29 22 26 20 17 23 18 17 15 16 16 17 18 22 23 24 22 26 27 27 26 24 23 22 19 17 16 15 13 11 9 7 6
41 39 40 39 33 27 23 22 24 26 29 26 29 26 21 19 20 18 17 17 18 18 20 23 26 27 28 28 26 25 25 24 22 20 18 16 15 13 9 8 7 6 5
44 45 46 42 32 24 20 20 25 32 30 28 27 31 24 22 23 19 19 19 19 19 19 22 25 28 26 25 24 23 22 22 20 19 16 14 12 10 8 7 6 7 7
48 50 49 43 28 19 13 15 22 32 32 31 27 30 29 24 19 17 23 22 22 22 23 23 25 27 26 24 23 23 22 21 19 18 16 13 12 10 9 9 9 10 10
50 52 52 42 27 13 4 17 22 29 34 31 26 28 30 25 27 20 22 22 23 23 24 24 24 25 25 23 21 20 19 18 17 17 17 16 15 15 14 14 13 14 15
50 55 55 42 26 5 15 21 30 28 31 27 24 24 32 27 19 21 23 23 24 24 24 24 25 25 25 25 22 21 20 20 19 19 19 19 18 18 17 18 19 19 19
51 52 53 43 23 12 19 31 22 25 26 25 22 21 27 26 24 25 17 22 24 24 25 24 23 24 25 26 26 24 21 20 20 20 21 21 21 21 21 22 23 23 24
47 47 47 42 26 22 27 24 21 18 23 21 21 18 26 22 20 20 22 22 16 17 27 24 23 24 26 28 29 29 27 25 22 22 23 21 22 23 25 26 26 27 28
41 40 39 35 26 23 21 20 15 12 13 19 15 16 20 21 18 20 22 21 22 22 21 24 25 26 28 29 29 30 31 30 28 27 26 27 27 28 29 29 30 31 33
32 34 32 27 20 17 13 11 10 9 10 14 17 17 18 19 21 19 20 22 24 23 23 25 27 29 31 31 31 31 31 31 30 31 31 32 33 33 33 33 34 35 35
26 28 29 24 18 10 6 5 6 5 8 14 15 14 16 21 26 26 25 26 25 24 23 26 30 30 30 32 33 33 34 34 33 33 33 34 36 36 35 35 34 34 35
20 21 22 22 19 15 7 3 5 7 7 10 13 13 15 18 21 23 26 32 36 36 33 30 26 30 31 29 28 31 35 37 34 32 32 33 34 33 32 32 32 31 30
16 15 16 15 16 16 11 8 5 10 13 14 16 17 17 18 20 22 24 24 27 34 36 33 31 30 32 34 32 33 30 30 31 33 33 32 30 31 28 29 28 27 25
18 15 13 12 11 10 10 10 8 7 7 14 19 21 23 22 22 23 24 23 23 28 33 37 36 34 32 32 35 36 38 38 39 38 38 38 36 33 30 31 30 27 30
Wind_Direction
317 317 316 317 315 313 307 301 297 291 285 284 284 268 256 256 253 259 250 251 257 256 237 243 251 270 304 326 321 318 306 285 289 275 262 235 207 193 197 207 217 218 225
317 316 318 318 321 319 314 305 297 296 293 282 274 258 241 241 239 246 243 247 254 234 233 234 248 275 305 312 322 327 5 1 359 23 150 191 184 180 183 197 213 221 198
321 320 320 322 322 323 318 309 304 306 299 289 273 246 217 223 235 235 238 240 232 229 222 225 250 278 288 312 330 351 23 66 77 62 116 140 148 143 139 131 131 127 145
321 320 319 322 321 324 315 311 305 307 287 272 259 221 204 220 225 224 230 234 220 219 207 219 254 266 260 231 12 41 76 126 151 62 134 126 140 126 126 131 131 134 138
319 320 319 319 316 323 313 308 303 308 287 274 242 216 208 212 216 213 220 217 201 196 195 219 221 243 209 147 133 93 66 94 136 124 115 143 134 107 117 120 119 128 138
320 320 316 314 312 317 312 303 296 297 270 253 240 218 210 213 210 208 215 202 190 198 207 213 181 197 151 134 124 106 90 103 121 116 127 118 123 125 126 127 126 126 126
318 318 314 312 309 313 307 295 284 266 262 273 225 185 191 204 205 202 205 198 194 206 211 223 173 177 159 138 131 119 121 119 124 129 122 119 117 121 119 118 120 121 123
316 317 314 309 311 311 302 285 276 252 234 254 241 196 204 209 200 205 204 197 197 207 210 202 177 171 167 147 128 122 131 133 132 131 128 128 125 120 118 120 121 122 123
318 319 310 308 315 310 300 286 268 244 230 221 244 198 201 199 195 204 201 201 188 191 199 182 178 170 168 179 150 143 141 141 136 134 133 131 127 126 126 124 122 122 124
319 319 311 308 315 307 297 279 259 238 231 216 224 202 200 197 199 205 201 201 192 188 182 181 175 167 161 166 160 153 146 140 141 140 138 134 134 131 131 133 134 134 133
325 323 314 306 311 304 292 273 254 229 220 215 206 208 203 204 210 202 200 202 196 190 180 175 173 168 164 160 159 153 147 142 137 138 137 137 135 136 137 136 136 134 131
328 326 319 313 310 301 285 269 245 231 201 204 192 199 200 193 210 199 199 195 194 187 181 175 167 159 155 158 156 154 149 147 146 144 147 147 148 148 148 145 144 147 148
335 333 327 320 312 299 282 259 238 227 207 197 195 202 202 202 201 194 190 188 184 183 181 177 165 163 168 164 157 154 152 154 153 151 154 153 150 150 161 162 166 174 180
340 336 331 328 315 298 280 260 229 220 209 198 195 192 199 200 189 187 186 182 176 180 179 179 168 166 159 159 162 163 164 164 163 165 168 166 164 163 168 186 205 227 242
346 343 340 334 322 300 272 251 223 208 202 188 192 193 188 196 186 188 189 185 178 173 175 179 178 173 171 169 171 174 176 176 176 179 181 186 191 188 195 213 229 245 261
350 348 348 343 336 315 267 226 204 193 191 187 187 188 191 180 186 210 190 187 181 178 176 179 184 184 183 183 183 184 186 189 192 195 200 209 216 224 237 251 259 262 261
353 353 356 351 347 338 194 168 177 168 182 179 179 185 189 193 193 179 191 193 190 186 184 184 187 193 197 197 196 196 196 201 210 216 218 220 228 236 244 252 258 263 270
358 0 1 359 358 42 144 152 146 174 171 178 177 184 189 193 184 181 188 201 199 197 196 195 194 199 205 208 209 210 210 211 215 222 230 236 241 245 250 256 262 266 271
7 5 7 10 28 96 133 137 144 154 163 177 181 182 188 193 196 194 201 200 206 213 206 207 208 207 212 217 221 222 222 224 228 233 238 242 248 254 259 263 267 270 274
11 10 14 20 49 91 127 128 127 140 163 176 185 189 189 195 200 205 207 201 200 205 219 217 220 220 222 224 223 227 230 232 235 240 247 250 255 258 262 268 272 275 278
13 15 20 33 57 93 107 107 102 117 163 184 190 196 201 211 220 220 211 212 217 229 226 225 229 231 233 233 233 232 234 237 238 242 250 253 253 258 265 268 271 275 279
14 17 22 33 59 75 91 97 102 118 160 187 205 226 235 224 215 214 217 223 225 226 231 233 232 233 236 237 237 237 238 239 241 244 247 253 258 259 261 265 269 272 275
9 17 21 26 36 59 79 125 138 148 181 194 208 214 219 224 229 233 236 233 233 234 236 242 241 236 235 237 239 240 242 245 247 248 251 256 260 263 267 268 271 273 274
358 8 18 20 23 34 28 272 255 226 221 223 226 233 233 231 233 234 237 239 238 240 241 241 246 244 243 245 243 244 246 244 245 248 254 256 258 260 262 267 271 275 277
338 348 359 12 15 21 18 14 300 258 253 245 238 242 247 247 244 245 249 251 250 246 240 236 241 246 245 242 238 234 232 237 248 258 263 262 260 262 259 263 261 263 260
323 323 331 338 350 3 7 5 339 318 292 266 258 254 256 256 254 253 249 254 256 252 244 239 241 243 245 246 245 246 247 249 253 256 261 261 261 257 260 255 259 271 267
Height
5714 5705 5696 5688 5680 5671 5666 5659 5655 5652 5650 5649 5648 5650 5651 5653 5655 5656 5657 5658 5659 5660 5660 5662 5662 5661 5660 5657 5654 5650 5646 5643 5640 5637 5636 5638 5639 5640 5644 5650 5656 5661 5664
5705 5695 5686 5677 5669 5661 5656 5650 5646 5643 5640 5639 5639 5639 5642 5646 5649 5651 5652 5654 5655 5656 5657 5658 5658 5658 5657 5655 5652 5648 5643 5641 5638 5636 5635 5636 5638 5641 5646 5650 5654 5656 5657
5695 5686 5677 5668 5660 5653 5648 5643 5638 5635 5632 5631 5633 5634 5636 5640 5644 5646 5648 5650 5652 5653 5654 5655 5656 5655 5655 5653 5650 5646 5643 5642 5640 5639 5639 5638 5641 5645 5648 5651 5654 5657 5660
5687 5679 5670 5661 5654 5648 5643 5638 5634 5631 5629 5629 5630 5631 5633 5636 5639 5642 5645 5647 5649 5650 5651 5653 5653 5652 5653 5652 5650 5647 5645 5645 5643 5644 5646 5644 5647 5649 5652 5656 5660 5663 5666
5679 5671 5662 5655 5648 5644 5637 5633 5630 5628 5626 5626 5627 5628 5630 5633 5635 5639 5641 5643 5646 5647 5649 5651 5652 5651 5653 5652 5650 5648 5646 5646 5644 5648 5648 5650 5653 5653 5658 5662 5665 5669 5672
5670 5663 5655 5648 5642 5637 5632 5628 5626 5624 5623 5622 5622 5625 5628 5632 5633 5636 5638 5640 5644 5645 5647 5649 5651 5650 5653 5652 5651 5651 5650 5649 5649 5652 5653 5657 5659 5661 5664 5667 5669 5673 5677
5663 5656 5648 5641 5635 5631 5626 5623 5621 5621 5621 5620 5620 5622 5625 5628 5631 5633 5636 5638 5642 5644 5646 5649 5650 5650 5652 5652 5653 5654 5655 5655 5655 5658 5660 5662 5665 5667 5670 5673 5676 5679 5681
5656 5648 5641 5634 5628 5622 5619 5617 5616 5616 5617 5618 5619 5620 5623 5626 5628 5632 5633 5636 5640 5642 5645 5647 5649 5650 5652 5653 5655 5657 5659 5660 5662 5663 5665 5668 5670 5673 5676 5679 5682 5685 5689
5647 5640 5632 5627 5620 5614 5611 5609 5609 5611 5612 5614 5616 5618 5621 5623 5626 5629 5632 5634 5638 5641 5642 5645 5648 5650 5651 5654 5656 5659 5662 5664 5665 5668 5671 5673 5677 5679 5682 5685 5688 5691 5694
5638 5630 5623 5618 5612 5606 5603 5602 5602 5604 5607 5610 5613 5615 5618 5621 5623 5627 5630 5632 5635 5639 5641 5643 5647 5650 5651 5654 5657 5660 5663 5667 5669 5671 5675 5678 5681 5684 5687 5689 5691 5694 5696
5629 5621 5614 5609 5603 5598 5595 5594 5595 5597 5601 5605 5609 5613 5615 5618 5621 5625 5627 5630 5634 5637 5639 5643 5646 5649 5653 5656 5658 5661 5664 5668 5672 5676 5679 5682 5685 5688 5690 5692 5695 5697 5699
5621 5613 5605 5599 5593 5588 5586 5585 5587 5590 5594 5600 5604 5609 5613 5616 5620 5623 5626 5629 5632 5635 5638 5641 5646 5649 5653 5658 5661 5664 5667 5671 5674 5678 5683 5686 5689 5691 5692 5694 5697 5699 5701
5613 5603 5596 5588 5582 5577 5574 5574 5578 5582 5587 5593 5599 5605 5609 5614 5618 5622 5626 5628 5631 5634 5638 5642 5645 5650 5654 5657 5662 5666 5669 5673 5676 5679 5683 5686 5689 5692 5694 5695 5697 5699 5700
5606 5596 5585 5575 5567 5562 5561 5562 5567 5573 5580 5587 5594 5601 5606 5611 5616 5621 5624 5627 5629 5633 5638 5643 5645 5651 5654 5658 5662 5666 5670 5673 5676 5679 5682 5684 5687 5689 5692 5694 5695 5697 5698
5599 5587 5575 5562 5553 5548 5548 5550 5556 5563 5573 5581 5589 5597 5603 5609 5614 5619 5622 5626 5629 5633 5638 5642 5647 5651 5655 5659 5663 5666 5670 5673 5676 5678 5681 5683 5686 5688 5690 5693 5694 5695 5696
5594 5581 5566 5551 5541 5536 5536 5540 5547 5557 5567 5577 5586 5594 5601 5607 5612 5616 5621 5626 5629 5633 5637 5641 5646 5651 5655 5659 5662 5666 5669 5672 5675 5678 5679 5681 5683 5685 5687 5689 5690 5691 5692
5591 5577 5560 5545 5535 5531 5531 5537 5545 5556 5565 5577 5585 5593 5600 5605 5609 5615 5621 5625 5629 5632 5636 5640 5645 5649 5654 5658 5661 5663 5666 5669 5673 5675 5678 5679 5681 5682 5684 5685 5686 5687 5687
5592 5575 5559 5543 5533 5531 5534 5540 5549 5557 5569 5578 5586 5593 5599 5603 5609 5614 5620 5624 5628 5632 5635 5638 5642 5647 5651 5655 5658 5661 5664 5667 5669 5671 5674 5676 5678 5679 5680 5681 5682 5682 5683
5593 5580 5566 5550 5540 5539 5543 5550 5557 5566 5574 5582 5589 5595 5600 5605 5610 5615 5618 5623 5626 5630 5633 5636 5640 5644 5648 5652 5655 5658 5661 5663 5666 5667 5669 5671 5673 5674 5675 5676 5676 5676 5676
5599 5589 5577 5565 5555 5554 5559 5565 5572 5576 5582 5587 5593 5597 5602 5607 5611 5614 5618 5621 5624 5626 5631 5635 5638 5641 5644 5646 5649 5652 5656 5658 5660 5662 5663 5665 5666 5667 5668 5668 5669 5669 5668
5605 5598 5591 5582 5576 5575 5577 5580 5583 5585 5589 5593 5596 5600 5604 5607 5610 5612 5615 5618 5622 5625 5628 5630 5633 5636 5638 5641 5644 5646 5648 5651 5654 5655 5657 5658 5659 5660 5661 5661 5661 5661 5660
5612 5606 5600 5595 5591 5589 5589 5589 5590 5591 5593 5595 5597 5599 5602 5605 5608 5610 5613 5616 5618 5620 5622 5624 5626 5629 5631 5633 5636 5639 5641 5643 5645 5647 5648 5649 5651 5651 5652 5652 5651 5651 5650
5616 5611 5606 5602 5599 5596 5596 5594 5593 5594 5595 5596 5597 5598 5599 5601 5603 5606 5608 5610 5612 5614 5616 5618 5619 5621 5623 5625 5627 5630 5632 5634 5636 5638 5639 5640 5641 5641 5641 5642 5642 5642 5641
5618 5613 5609 5605 5602 5598 5596 5596 5596 5595 5594 5594 5595 5595 5596 5597 5598 5599 5600 5602 5604 5605 5608 5610 5612 5613 5616 5618 5620 5620 5622 5623 5626 5628 5629 5631 5631 5632 5632 5632 5632 5632 5632
5616 5613 5609 5606 5603 5599 5597 5595 5594 5593 5593 5592 5591 5591 5591 5592 5592 5593 5593 5594 5594 5596 5598 5601 5603 5605 5606 5608 5610 5612 5613 5615 5617 5618 5619 5620 5621 5622 5623 5623 5624 5624 5624
5613 5610 5607 5604 5601 5598 5595 5593 5592 5591 5589 5588 5588 5587 5586 5586 5586 5586 5586 5586 5587 5587 5588 5591 5593 5595 5598 5599 5601 5603 5604 5605 5607 5609 5609 5610 5611 5612 5613 5614 5614 5614 5615